Location: ?????????
(44.2517°N, 135.2292°E)
Time: 15:47:22
(UTC+00:00)

Tiangong - Visible Passes

Search period start: 20 January 2026 00:00
Search period end: 30 January 2026 00:00
Orbit: 378 x 393 km, 41.5° (Epoch: 20 January)

Date Brightness Start Highest point End Pass type
(mag) Time Alt. Az. Time Alt. Az. Time Alt. Az.
20 Jan -0.1 20:14:17 24° SE 20:14:17 24° SE 20:16:33 10° ESE visible
20 Jan -1.4 21:47:18 10° WSW 21:50:24 50° S 21:53:31 10° E visible
21 Jan -1.3 20:50:03 32° SW 20:51:01 43° S 20:54:05 10° E visible
22 Jan 0.7 19:53:27 18° ESE 19:53:27 18° ESE 19:54:34 10° E visible
22 Jan -1.5 21:25:40 14° WSW 21:28:13 51° S 21:31:21 10° ESE visible
23 Jan -1.4 20:28:58 48° SSE 20:28:58 48° SSE 20:31:49 10° E visible
24 Jan 1.5 19:32:10 10° E 19:32:10 10° E 19:32:13 10° E visible
24 Jan -1.4 21:04:23 26° WSW 21:05:49 45° S 21:08:52 10° ESE visible
25 Jan -0.2 20:07:32 28° ESE 20:07:32 28° ESE 20:09:17 10° ESE visible
25 Jan -0.6 21:39:58 10° W 21:42:45 27° SSW 21:45:31 10° SE visible
26 Jan -1.3 20:42:50 35° SSW 20:43:08 36° SSW 20:46:06 10° SE visible
27 Jan 1.0 19:45:54 14° ESE 19:45:54 14° ESE 19:46:29 10° ESE visible
27 Jan -0.2 21:18:07 13° WSW 21:19:52 19° SSW 21:22:12 10° SSE visible
28 Jan -0.2 20:21:10 23° SSE 20:21:10 23° SSE 20:22:56 10° SE visible
29 Jan 0.2 20:56:25 12° SW 20:56:42 12° SSW 20:58:08 10° S visible
